Terminal Aerodrome Forecast
Issued by NWS Charleston, WV

Current Version | Previous Version | Graphics & Text | Print | Product List | Glossary On
Versions: 1 2 3 4 5 6 7 8 9 10 11 12 13 14 15 16 17 18 19 20 21 22 23 24 25
000
FTUS41 KRLX 210622 AAA
TAFCRW
TAF AMD
KCRW 210622Z 2106/2206 00000KT 3SM SHRA SCT009 OVC015
      TEMPO 2106/2107 1/4SM -RA FG
     FM211100 VRB03KT 3SM BR OVC010
     FM211700 33004KT 6SM BR BKN020
     FM212000 33005KT P6SM BKN045=

USA.gov is the U.S. government's official web portal to all federal, state and local government web resources and services.